Time,TemperatureF,DewpointF,PressureIn,WindDirection,WindDirectionDegrees,WindSpeedMPH,WindSpeedGustMPH,Humidity,HourlyPrecipIn,Conditions,Clouds,dailyrainin,SoftwareType,DateUTC
2013-07-04 00:04:00,73.8,65.3,30.16,East,90,0.0,0.0,75,0.00,CLR,,0.00,WeatherDisplay:10.37,2013-07-04 04:04:00,
2013-07-04 00:09:00,73.8,65.3,30.16,East,90,0.0,0.0,75,0.00,CLR,,0.00,WeatherDisplay:10.37,2013-07-04 04:09:00,
2013-07-04 00:14:00,73.8,65.3,30.15,East,90,0.0,0.0,75,0.00,CLR,,0.00,WeatherDisplay:10.37,2013-07-04 04:14:00,
2013-07-04 00:19:00,73.8,65.3,30.15,East,90,0.0,0.0,75,0.00,CLR,,0.00,WeatherDisplay:10.37,2013-07-04 04:19:00,
2013-07-04 00:24:00,73.6,65.2,30.15,East,90,0.0,0.0,75,0.00,CLR,,0.00,WeatherDisplay:10.37,2013-07-04 04:24:00,
2013-07-04 00:29:00,73.6,65.5,30.15,East,90,0.0,0.0,76,0.00,CLR,,0.00,WeatherDisplay:10.37,2013-07-04 04:29:00,
2013-07-04 00:39:00,73.6,65.5,30.15,East,90,0.0,0.0,76,0.00,CLR,,0.00,WeatherDisplay:10.37,2013-07-04 04:39:00,
2013-07-04 00:44:00,73.6,65.5,30.15,East,90,0.0,1.0,76,0.00,CLR,,0.00,WeatherDisplay:10.37,2013-07-04 04:44:00,
2013-07-04 00:49:00,73.6,65.5,30.15,East,90,0.0,0.0,76,0.00,CLR,,0.00,WeatherDisplay:10.37,2013-07-04 04:49:00,
2013-07-04 00:54:00,73.6,65.5,30.15,East,90,1.0,1.0,76,0.00,CLR,,0.00,WeatherDisplay:10.37,2013-07-04 04:54:00,
2013-07-04 00:59:00,73.4,65.4,30.15,East,90,1.0,1.0,76,0.00,CLR,,0.00,WeatherDisplay:10.37,2013-07-04 04:59:00,
2013-07-04 01:04:00,73.4,65.7,30.14,East,90,0.0,1.0,77,0.00,CLR,,0.00,WeatherDisplay:10.37,2013-07-04 05:04:00,
2013-07-04 01:09:00,73.4,65.7,30.15,East,90,0.0,0.0,77,0.00,CLR,,0.00,WeatherDisplay:10.37,2013-07-04 05:09:00,
2013-07-04 01:19:00,73.4,65.7,30.15,East,90,0.0,0.0,77,0.00,CLR,,0.00,WeatherDisplay:10.37,2013-07-04 05:19:00,
2013-07-04 01:29:00,73.4,65.7,30.14,East,90,0.0,0.0,77,0.00,CLR,,0.00,WeatherDisplay:10.37,2013-07-04 05:29:00,
2013-07-04 01:39:00,73.4,65.7,30.15,East,90,0.0,0.0,77,0.00,CLR,,0.00,WeatherDisplay:10.37,2013-07-04 05:39:00,
2013-07-04 01:49:00,73.4,66.1,30.14,East,90,0.0,0.0,78,0.00,CLR,,0.00,WeatherDisplay:10.37,2013-07-04 05:49:00,
2013-07-04 01:54:00,73.4,66.1,30.14,East,90,0.0,0.0,78,0.00,CLR,,0.00,WeatherDisplay:10.37,2013-07-04 05:54:00,
2013-07-04 01:59:00,73.4,66.1,30.14,East,90,0.0,0.0,78,0.00,CLR,,0.00,WeatherDisplay:10.37,2013-07-04 05:59:00,
2013-07-04 02:04:00,73.4,66.1,30.14,East,90,0.0,0.0,78,0.00,CLR,,0.00,WeatherDisplay:10.37,2013-07-04 06:04:00,
2013-07-04 02:09:00,73.2,65.9,30.14,East,90,0.0,0.0,78,0.00,CLR,,0.00,WeatherDisplay:10.37,2013-07-04 06:09:00,
2013-07-04 02:14:00,73.2,66.3,30.14,East,90,0.0,0.0,79,0.00,CLR,,0.00,WeatherDisplay:10.37,2013-07-04 06:14:00,
2013-07-04 02:19:00,73.2,66.3,30.14,East,90,0.0,0.0,79,0.00,CLR,,0.00,WeatherDisplay:10.37,2013-07-04 06:19:00,
2013-07-04 02:29:00,73.2,66.3,30.14,ESE,120,0.0,0.0,79,0.00,CLR,,0.00,WeatherDisplay:10.37,2013-07-04 06:29:00,
2013-07-04 02:34:00,73.2,66.3,30.14,SE,135,0.0,0.0,79,0.00,CLR,,0.00,WeatherDisplay:10.37,2013-07-04 06:34:00,
2013-07-04 02:39:00,73.2,66.3,30.14,SE,135,0.0,0.0,79,0.00,CLR,,0.00,WeatherDisplay:10.37,2013-07-04 06:39:00,
2013-07-04 02:49:00,73.0,66.5,30.14,SE,135,0.0,0.0,80,0.00,CLR,,0.00,WeatherDisplay:10.37,2013-07-04 06:49:00,
2013-07-04 02:59:00,72.7,66.5,30.15,SE,135,0.0,0.0,81,0.00,CLR,,0.00,WeatherDisplay:10.37,2013-07-04 06:59:00,
2013-07-04 03:04:00,72.7,66.5,30.15,SE,135,0.0,0.0,81,0.00,CLR,,0.00,WeatherDisplay:10.37,2013-07-04 07:04:00,
2013-07-04 03:09:00,72.7,66.5,30.15,SE,145,0.0,1.0,81,0.00,CLR,,0.00,WeatherDisplay:10.37,2013-07-04 07:09:00,
2013-07-04 03:19:00,72.5,66.0,30.15,WSW,248,0.0,0.0,80,0.00,CLR,,0.00,WeatherDisplay:10.37,2013-07-04 07:19:00,
2013-07-04 03:24:00,72.3,65.8,30.15,WSW,241,0.0,0.0,80,0.00,CLR,,0.00,WeatherDisplay:10.37,2013-07-04 07:24:00,
2013-07-04 03:29:00,72.3,65.8,30.15,SW,216,0.0,0.0,80,0.00,CLR,,0.00,WeatherDisplay:10.37,2013-07-04 07:29:00,
2013-07-04 03:34:00,72.3,65.8,30.15,SSE,158,0.0,0.0,80,0.00,CLR,,0.00,WeatherDisplay:10.37,2013-07-04 07:34:00,
2013-07-04 03:39:00,72.5,66.3,30.15,SSE,158,0.0,0.0,81,0.00,CLR,,0.00,WeatherDisplay:10.37,2013-07-04 07:39:00,
2013-07-04 03:44:00,72.5,66.3,30.15,SSE,157,0.0,0.0,81,0.00,CLR,,0.00,WeatherDisplay:10.37,2013-07-04 07:44:00,
2013-07-04 03:49:00,72.5,66.3,30.15,SSE,158,1.0,1.0,81,0.00,CLR,,0.00,WeatherDisplay:10.37,2013-07-04 07:49:00,
2013-07-04 03:54:00,72.5,66.3,30.15,SSE,154,1.0,1.0,81,0.00,CLR,,0.00,WeatherDisplay:10.37,2013-07-04 07:54:00,
2013-07-04 03:59:00,72.5,66.0,30.15,SSE,157,0.0,1.0,80,0.00,CLR,,0.00,WeatherDisplay:10.37,2013-07-04 07:59:00,
2013-07-04 04:05:00,72.5,66.0,30.15,SSE,158,0.0,0.0,80,0.00,CLR,,0.00,WeatherDisplay:10.37,2013-07-04 08:05:00,
2013-07-04 04:10:00,72.5,66.3,30.15,SSE,158,0.0,0.0,81,0.00,CLR,,0.00,WeatherDisplay:10.37,2013-07-04 08:10:00,
2013-07-04 04:20:00,72.5,66.3,30.15,SSE,158,0.0,0.0,81,0.00,CLR,,0.00,WeatherDisplay:10.37,2013-07-04 08:20:00,
2013-07-04 04:30:00,72.4,65.9,30.16,South,172,0.0,0.0,80,0.00,CLR,,0.00,WeatherDisplay:10.37,2013-07-04 08:30:00,
2013-07-04 04:35:00,72.3,65.8,30.16,South,177,1.0,1.0,80,0.00,CLR,,0.00,WeatherDisplay:10.37,2013-07-04 08:35:00,
2013-07-04 04:40:00,72.3,65.8,30.16,SSE,153,0.0,2.0,80,0.00,CLR,,0.00,WeatherDisplay:10.37,2013-07-04 08:40:00,
2013-07-04 04:45:00,72.3,65.8,30.16,SE,135,1.0,1.0,80,0.00,CLR,,0.00,WeatherDisplay:10.37,2013-07-04 08:45:00,
2013-07-04 04:50:00,72.3,65.8,30.16,ESE,120,0.0,1.0,80,0.00,CLR,,0.00,WeatherDisplay:10.37,2013-07-04 08:50:00,
2013-07-04 04:55:00,72.1,66.0,30.16,SE,125,0.0,1.0,81,0.00,CLR,,0.00,WeatherDisplay:10.37,2013-07-04 08:55:00,
2013-07-04 05:00:00,72.1,66.0,30.16,SE,139,1.0,1.0,81,0.00,CLR,,0.00,WeatherDisplay:10.37,2013-07-04 09:00:00,
2013-07-04 05:05:00,72.0,65.8,30.16,SE,143,1.0,1.0,81,0.00,CLR,,0.00,WeatherDisplay:10.37,2013-07-04 09:05:00,
2013-07-04 05:10:00,72.0,65.8,30.16,SSE,157,0.0,1.0,81,0.00,CLR,,0.00,WeatherDisplay:10.37,2013-07-04 09:10:00,
2013-07-04 05:20:00,71.8,66.0,30.16,SSW,210,0.0,0.0,82,0.00,CLR,,0.00,WeatherDisplay:10.37,2013-07-04 09:20:00,
2013-07-04 05:30:00,71.6,65.8,30.17,SW,224,0.0,1.0,82,0.00,CLR,,0.00,WeatherDisplay:10.37,2013-07-04 09:30:00,
2013-07-04 05:40:00,71.4,66.0,30.17,West,270,0.0,1.0,83,0.00,CLR,,0.00,WeatherDisplay:10.37,2013-07-04 09:40:00,
2013-07-04 05:50:00,71.2,65.8,30.17,West,268,0.0,1.0,83,0.00,CLR,,0.00,WeatherDisplay:10.37,2013-07-04 09:50:00,
2013-07-04 06:00:00,71.2,65.8,30.18,SSE,152,1.0,1.0,83,0.00,RA,,0.01,WeatherDisplay:10.37,2013-07-04 10:00:00,
2013-07-04 06:05:00,71.2,65.8,30.17,SE,142,0.0,0.0,83,0.00,CLR,,0.01,WeatherDisplay:10.37,2013-07-04 10:05:00,
2013-07-04 06:10:00,71.2,66.1,30.17,South,189,0.0,0.0,84,0.00,CLR,,0.01,WeatherDisplay:10.37,2013-07-04 10:10:00,
2013-07-04 06:15:00,71.1,66.0,30.17,SW,225,0.0,0.0,84,0.00,CLR,,0.01,WeatherDisplay:10.37,2013-07-04 10:15:00,
2013-07-04 06:20:00,71.1,66.0,30.18,SW,225,0.0,0.0,84,0.00,CLR,,0.01,WeatherDisplay:10.37,2013-07-04 10:20:00,
2013-07-04 06:30:00,71.1,66.0,30.18,SSW,200,0.0,0.0,84,0.00,CLR,,0.01,WeatherDisplay:10.37,2013-07-04 10:30:00,
2013-07-04 06:35:00,71.1,66.0,30.18,SSW,193,0.0,0.0,84,0.00,CLR,,0.01,WeatherDisplay:10.37,2013-07-04 10:35:00,
2013-07-04 06:40:00,71.1,66.0,30.18,South,184,0.0,0.0,84,0.00,CLR,,0.01,WeatherDisplay:10.37,2013-07-04 10:40:00,
2013-07-04 06:45:00,71.1,66.0,30.19,South,180,0.0,0.0,84,0.00,CLR,,0.01,WeatherDisplay:10.37,2013-07-04 10:45:00,
2013-07-04 06:50:00,71.1,66.0,30.19,South,187,0.0,0.0,84,0.00,CLR,,0.01,WeatherDisplay:10.37,2013-07-04 10:50:00,
2013-07-04 06:55:00,71.1,66.0,30.18,SSW,200,0.0,0.0,84,0.00,CLR,,0.01,WeatherDisplay:10.37,2013-07-04 10:55:00,
2013-07-04 07:00:00,71.1,66.3,30.19,SW,226,0.0,1.0,85,0.00,CLR,,0.01,WeatherDisplay:10.37,2013-07-04 11:00:00,
2013-07-04 07:05:00,70.9,66.1,30.19,WSW,244,0.0,1.0,85,0.00,CLR,,0.01,WeatherDisplay:10.37,2013-07-04 11:05:00,
2013-07-04 07:10:00,70.9,66.5,30.19,SW,230,1.0,2.0,86,0.00,CLR,,0.01,WeatherDisplay:10.37,2013-07-04 11:10:00,
2013-07-04 07:15:00,70.9,66.5,30.19,SW,223,1.0,1.0,86,0.00,CLR,,0.01,WeatherDisplay:10.37,2013-07-04 11:15:00,
2013-07-04 07:25:00,70.9,66.5,30.19,WSW,245,0.0,1.0,86,0.00,CLR,,0.01,WeatherDisplay:10.37,2013-07-04 11:25:00,
2013-07-04 07:30:00,70.9,66.5,30.19,WSW,245,0.0,1.0,86,0.00,CLR,,0.01,WeatherDisplay:10.37,2013-07-04 11:30:00,
2013-07-04 07:35:00,70.9,66.5,30.19,WSW,248,0.0,1.0,86,0.00,CLR,,0.01,WeatherDisplay:10.37,2013-07-04 11:35:00,
2013-07-04 07:40:00,70.9,66.5,30.19,WSW,252,0.0,1.0,86,0.00,CLR,,0.01,WeatherDisplay:10.37,2013-07-04 11:40:00,
2013-07-04 07:50:00,70.9,66.5,30.19,WSW,248,0.0,1.0,86,0.00,CLR,,0.01,WeatherDisplay:10.37,2013-07-04 11:50:00,
2013-07-04 07:55:00,70.9,66.1,30.19,WSW,248,0.0,0.0,85,0.00,CLR,,0.01,WeatherDisplay:10.37,2013-07-04 11:55:00,
2013-07-04 08:00:00,71.1,66.3,30.19,WSW,239,1.0,2.0,85,0.00,CLR,,0.01,WeatherDisplay:10.37,2013-07-04 12:00:00,
2013-07-04 08:05:00,71.2,66.5,30.19,ESE,104,0.0,1.0,85,0.00,CLR,,0.01,WeatherDisplay:10.37,2013-07-04 12:05:00,
2013-07-04 08:10:00,71.2,66.5,30.19,ESE,112,0.0,1.0,85,0.00,CLR,,0.01,WeatherDisplay:10.37,2013-07-04 12:10:00,
2013-07-04 08:15:00,71.2,66.5,30.19,SSE,157,0.0,0.0,85,0.00,CLR,,0.01,WeatherDisplay:10.37,2013-07-04 12:15:00,
2013-07-04 08:20:00,71.4,66.7,30.19,SE,138,0.0,0.0,85,0.00,CLR,,0.01,WeatherDisplay:10.37,2013-07-04 12:20:00,
2013-07-04 08:30:00,71.6,66.8,30.20,South,188,0.0,1.0,85,0.00,CLR,,0.01,WeatherDisplay:10.37,2013-07-04 12:30:00,
2013-07-04 08:40:00,71.9,67.2,30.21,NNW,333,0.0,1.0,85,0.00,CLR,,0.01,WeatherDisplay:10.37,2013-07-04 12:40:00,
2013-07-04 08:45:00,72.0,67.2,30.21,WSW,243,1.0,1.0,85,0.00,CLR,,0.01,WeatherDisplay:10.37,2013-07-04 12:45:00,
2013-07-04 08:50:00,72.0,67.2,30.21,SW,229,0.0,1.0,85,0.00,CLR,,0.01,WeatherDisplay:10.37,2013-07-04 12:50:00,
2013-07-04 08:55:00,72.0,67.2,30.21,WSW,237,1.0,1.0,85,0.00,CLR,,0.01,WeatherDisplay:10.37,2013-07-04 12:55:00,
2013-07-04 09:00:00,72.0,67.2,30.22,South,175,1.0,2.0,85,0.00,CLR,,0.01,WeatherDisplay:10.37,2013-07-04 13:00:00,
2013-07-04 09:05:00,72.1,67.3,30.22,SSE,160,1.0,2.0,85,0.00,CLR,,0.01,WeatherDisplay:10.37,2013-07-04 13:05:00,
2013-07-04 09:10:00,72.1,67.4,30.22,SSE,152,2.0,2.0,85,0.00,CLR,,0.01,WeatherDisplay:10.37,2013-07-04 13:10:00,
2013-07-04 09:15:00,72.3,67.6,30.22,SSE,151,1.0,2.0,85,0.00,CLR,,0.01,WeatherDisplay:10.37,2013-07-04 13:15:00,
2013-07-04 09:20:00,72.3,67.6,30.22,SSE,167,0.0,1.0,85,0.00,CLR,,0.01,WeatherDisplay:10.37,2013-07-04 13:20:00,
2013-07-04 09:25:00,72.5,67.7,30.22,SE,131,1.0,1.0,85,0.00,CLR,,0.01,WeatherDisplay:10.37,2013-07-04 13:25:00,
2013-07-04 09:30:00,72.7,67.6,30.22,SSE,161,1.0,2.0,84,0.00,CLR,,0.01,WeatherDisplay:10.37,2013-07-04 13:30:00,
2013-07-04 09:40:00,72.9,67.4,30.22,SSW,203,1.0,2.0,83,0.00,CLR,,0.01,WeatherDisplay:10.37,2013-07-04 13:40:00,
2013-07-04 09:45:00,72.9,67.8,30.22,South,180,1.0,5.0,84,0.00,CLR,,0.01,WeatherDisplay:10.37,2013-07-04 13:45:00,
2013-07-04 09:50:00,73.0,67.9,30.22,South,189,1.0,2.0,84,0.00,CLR,,0.01,WeatherDisplay:10.37,2013-07-04 13:50:00,
2013-07-04 10:00:00,73.8,68.6,30.22,SSE,157,1.0,2.0,84,0.00,CLR,,0.01,WeatherDisplay:10.37,2013-07-04 14:00:00,
2013-07-04 10:05:00,73.9,68.4,30.21,South,183,2.0,3.0,83,0.00,CLR,,0.01,WeatherDisplay:10.37,2013-07-04 14:05:00,
2013-07-04 10:10:00,74.1,68.6,30.21,SSW,205,1.0,4.0,83,0.00,CLR,,0.01,WeatherDisplay:10.37,2013-07-04 14:10:00,
2013-07-04 10:20:00,74.5,69.0,30.21,South,176,1.0,1.0,83,0.00,CLR,,0.01,WeatherDisplay:10.37,2013-07-04 14:20:00,
2013-07-04 10:30:00,74.8,68.6,30.21,South,176,1.0,2.0,81,0.00,CLR,,0.01,WeatherDisplay:10.37,2013-07-04 14:30:00,
2013-07-04 10:40:00,75.2,68.6,30.21,SW,231,1.0,2.0,80,0.00,CLR,,0.01,WeatherDisplay:10.37,2013-07-04 14:40:00,
2013-07-04 10:45:00,75.2,68.6,30.21,SSW,194,2.0,3.0,80,0.00,CLR,,0.01,WeatherDisplay:10.37,2013-07-04 14:45:00,
2013-07-04 10:50:00,75.4,68.5,30.21,South,174,1.0,2.0,79,0.00,CLR,,0.01,WeatherDisplay:10.37,2013-07-04 14:50:00,
2013-07-04 10:55:00,75.6,68.6,30.21,South,170,1.0,2.0,79,0.00,CLR,,0.01,WeatherDisplay:10.37,2013-07-04 14:55:00,
2013-07-04 11:05:00,76.1,69.1,30.20,SSW,197,1.0,2.0,79,0.00,CLR,,0.01,WeatherDisplay:10.37,2013-07-04 15:05:00,
2013-07-04 11:10:00,76.3,68.9,30.20,SSE,166,1.0,2.0,78,0.00,CLR,,0.01,WeatherDisplay:10.37,2013-07-04 15:10:00,
2013-07-04 11:15:00,76.3,68.9,30.20,South,173,1.0,2.0,78,0.00,CLR,,0.01,WeatherDisplay:10.37,2013-07-04 15:15:00,
2013-07-04 11:20:00,76.4,68.7,30.19,SW,226,0.0,2.0,77,0.00,CLR,,0.01,WeatherDisplay:10.37,2013-07-04 15:20:00,
2013-07-04 11:25:00,76.5,68.7,30.20,SW,217,1.0,2.0,77,0.00,CLR,,0.01,WeatherDisplay:10.37,2013-07-04 15:25:00,
2013-07-04 11:30:00,76.5,68.7,30.19,South,188,1.0,2.0,77,0.00,CLR,,0.01,WeatherDisplay:10.37,2013-07-04 15:30:00,
2013-07-04 11:35:00,76.5,68.8,30.19,South,170,0.0,2.0,77,0.00,CLR,,0.01,WeatherDisplay:10.37,2013-07-04 15:35:00,
2013-07-04 11:40:00,76.6,68.9,30.19,SSE,155,2.0,2.0,77,0.00,CLR,,0.01,WeatherDisplay:10.37,2013-07-04 15:40:00,
2013-07-04 11:45:00,76.8,69.1,30.19,South,172,1.0,2.0,77,0.00,CLR,,0.01,WeatherDisplay:10.37,2013-07-04 15:45:00,
2013-07-04 11:50:00,77.2,69.4,30.19,South,188,0.0,2.0,77,0.00,CLR,,0.01,WeatherDisplay:10.37,2013-07-04 15:50:00,
2013-07-04 11:55:00,77.4,69.2,30.19,SSE,161,1.0,1.0,76,0.00,CLR,,0.01,WeatherDisplay:10.37,2013-07-04 15:55:00,
2013-07-04 12:00:00,77.5,69.4,30.19,East,87,2.0,3.0,76,0.00,CLR,,0.01,WeatherDisplay:10.37,2013-07-04 16:00:00,
2013-07-04 12:04:00,77.7,69.5,30.19,ENE,61,0.0,3.0,76,0.00,CLR,,0.01,WeatherDisplay:10.37,2013-07-04 16:04:00,
2013-07-04 12:10:00,78.1,69.5,30.19,East,89,2.0,3.0,75,0.00,CLR,,0.01,WeatherDisplay:10.37,2013-07-04 16:10:00,
2013-07-04 12:15:00,78.3,69.7,30.19,East,85,1.0,3.0,75,0.00,CLR,,0.01,WeatherDisplay:10.37,2013-07-04 16:15:00,
2013-07-04 12:20:00,78.7,70.1,30.19,ESE,121,1.0,2.0,75,0.00,CLR,,0.01,WeatherDisplay:10.37,2013-07-04 16:20:00,
2013-07-04 12:30:00,79.2,69.8,30.19,SW,225,1.0,3.0,73,0.00,CLR,,0.01,WeatherDisplay:10.37,2013-07-04 16:30:00,
2013-07-04 12:40:00,79.2,69.8,30.19,WSW,255,0.0,2.0,73,0.00,CLR,,0.01,WeatherDisplay:10.37,2013-07-04 16:40:00,
2013-07-04 12:50:00,79.3,69.9,30.19,SSE,149,0.0,1.0,73,0.00,CLR,,0.01,WeatherDisplay:10.37,2013-07-04 16:50:00,
2013-07-04 12:54:00,79.5,69.7,30.19,SSW,201,1.0,1.0,72,0.00,CLR,,0.01,WeatherDisplay:10.37,2013-07-04 16:54:00,
2013-07-04 12:59:00,79.5,69.3,30.19,SSW,207,1.0,2.0,71,0.00,CLR,,0.01,WeatherDisplay:10.37,2013-07-04 16:59:00,
2013-07-04 13:04:00,79.7,69.5,30.19,SSE,164,2.0,2.0,71,0.00,CLR,,0.01,WeatherDisplay:10.37,2013-07-04 17:04:00,
2013-07-04 13:10:00,79.9,69.7,30.19,SSW,197,1.0,2.0,71,0.00,CLR,,0.01,WeatherDisplay:10.37,2013-07-04 17:10:00,
2013-07-04 13:14:00,80.1,69.8,30.18,South,181,1.0,3.0,71,0.00,CLR,,0.01,WeatherDisplay:10.37,2013-07-04 17:14:00,
2013-07-04 13:20:00,80.2,70.0,30.19,SE,143,2.0,2.0,71,0.00,CLR,,0.01,WeatherDisplay:10.37,2013-07-04 17:20:00,
2013-07-04 13:25:00,80.2,70.0,30.19,SSE,157,1.0,2.0,71,0.00,CLR,,0.01,WeatherDisplay:10.37,2013-07-04 17:25:00,
2013-07-04 13:34:00,81.0,70.7,30.18,SSW,195,1.0,2.0,71,0.00,CLR,,0.01,WeatherDisplay:10.37,2013-07-04 17:34:00,
2013-07-04 13:40:00,81.1,70.4,30.18,SSW,199,1.0,2.0,70,0.00,CLR,,0.01,WeatherDisplay:10.37,2013-07-04 17:40:00,
2013-07-04 13:44:00,81.4,69.9,30.18,SW,222,2.0,3.0,68,0.00,CLR,,0.01,WeatherDisplay:10.37,2013-07-04 17:44:00,
2013-07-04 13:50:00,81.1,69.6,30.18,SW,223,1.0,2.0,68,0.00,CLR,,0.01,WeatherDisplay:10.37,2013-07-04 17:50:00,
2013-07-04 13:54:00,81.1,70.0,30.18,SSW,193,1.0,1.0,69,0.00,CLR,,0.01,WeatherDisplay:10.37,2013-07-04 17:54:00,
2013-07-04 13:59:00,81.2,70.0,30.18,SSE,162,1.0,2.0,69,0.00,CLR,,0.01,WeatherDisplay:10.37,2013-07-04 17:59:00,
2013-07-04 14:04:00,81.1,69.5,30.18,SSE,161,1.0,2.0,68,0.00,CLR,,0.01,WeatherDisplay:10.37,2013-07-04 18:04:00,
2013-07-04 14:10:00,81.0,69.8,30.18,SSW,193,1.0,1.0,69,0.00,CLR,,0.01,WeatherDisplay:10.37,2013-07-04 18:10:00,
2013-07-04 14:14:00,81.0,69.8,30.18,NNE,18,1.0,3.0,69,0.00,CLR,,0.01,WeatherDisplay:10.37,2013-07-04 18:14:00,
2013-07-04 14:19:00,81.0,69.4,30.18,SE,144,2.0,3.0,68,0.00,CLR,,0.01,WeatherDisplay:10.37,2013-07-04 18:19:00,
2013-07-04 14:24:00,81.3,69.7,30.18,SSW,197,0.0,2.0,68,0.00,CLR,,0.01,WeatherDisplay:10.37,2013-07-04 18:24:00,
2013-07-04 14:30:00,81.7,70.5,30.17,South,177,1.0,2.0,69,0.00,CLR,,0.01,WeatherDisplay:10.37,2013-07-04 18:30:00,
2013-07-04 14:34:00,82.0,69.9,30.17,SW,227,3.0,5.0,67,0.00,CLR,,0.01,WeatherDisplay:10.37,2013-07-04 18:34:00,
2013-07-04 14:39:00,82.1,70.0,30.17,SSW,204,3.0,4.0,67,0.00,CLR,,0.01,WeatherDisplay:10.37,2013-07-04 18:39:00,
2013-07-04 14:44:00,82.4,70.8,30.17,South,187,0.0,3.0,68,0.00,CLR,,0.01,WeatherDisplay:10.37,2013-07-04 18:44:00,
2013-07-04 14:49:00,82.6,71.0,30.17,SSW,209,1.0,1.0,68,0.00,CLR,,0.01,WeatherDisplay:10.37,2013-07-04 18:49:00,
2013-07-04 14:54:00,82.8,70.3,30.17,SSE,165,3.0,4.0,66,0.00,CLR,,0.01,WeatherDisplay:10.37,2013-07-04 18:54:00,
2013-07-04 14:59:00,82.9,70.0,30.17,SSE,164,1.0,3.0,65,0.00,CLR,,0.01,WeatherDisplay:10.37,2013-07-04 18:59:00,
2013-07-04 15:04:00,82.9,70.0,30.17,South,185,1.0,3.0,65,0.00,CLR,,0.01,WeatherDisplay:10.37,2013-07-04 19:04:00,
2013-07-04 15:10:00,82.8,69.8,30.16,South,170,1.0,2.0,65,0.00,CLR,,0.01,WeatherDisplay:10.37,2013-07-04 19:10:00,
2013-07-04 15:20:00,82.4,69.4,30.16,SE,145,1.0,1.0,65,0.00,CLR,,0.01,WeatherDisplay:10.37,2013-07-04 19:20:00,
2013-07-04 15:24:00,82.4,69.0,30.16,SE,139,1.0,5.0,64,0.00,CLR,,0.01,WeatherDisplay:10.37,2013-07-04 19:24:00,
2013-07-04 15:29:00,82.4,69.0,30.16,SSE,167,1.0,2.0,64,0.00,CLR,,0.01,WeatherDisplay:10.37,2013-07-04 19:29:00,
2013-07-04 15:34:00,82.3,68.9,30.16,SW,226,0.0,2.0,64,0.00,CLR,,0.01,WeatherDisplay:10.37,2013-07-04 19:34:00,
2013-07-04 15:40:00,82.4,69.0,30.15,SW,221,2.0,3.0,64,0.00,CLR,,0.01,WeatherDisplay:10.37,2013-07-04 19:40:00,
2013-07-04 15:49:00,82.8,68.9,30.15,South,175,2.0,5.0,63,0.00,CLR,,0.01,WeatherDisplay:10.37,2013-07-04 19:49:00,
2013-07-04 15:54:00,82.7,68.4,30.15,SSE,158,2.0,5.0,62,0.00,CLR,,0.01,WeatherDisplay:10.37,2013-07-04 19:54:00,
2013-07-04 15:59:00,82.6,68.7,30.14,South,178,0.0,2.0,63,0.00,CLR,,0.01,WeatherDisplay:10.37,2013-07-04 19:59:00,
2013-07-04 16:05:00,82.6,68.7,30.15,SW,226,2.0,2.0,63,0.00,CLR,,0.01,WeatherDisplay:10.37,2013-07-04 20:05:00,
2013-07-04 16:14:00,82.6,69.6,30.14,SW,232,2.0,3.0,65,0.00,CLR,,0.01,WeatherDisplay:10.37,2013-07-04 20:14:00,
2013-07-04 16:19:00,82.6,68.7,30.14,SW,230,2.0,3.0,63,0.00,CLR,,0.01,WeatherDisplay:10.37,2013-07-04 20:19:00,
2013-07-04 16:24:00,82.5,68.6,30.14,West,259,3.0,5.0,63,0.00,CLR,,0.01,WeatherDisplay:10.37,2013-07-04 20:24:00,
2013-07-04 16:29:00,82.5,69.1,30.14,SW,217,1.0,1.0,64,0.00,CLR,,0.01,WeatherDisplay:10.37,2013-07-04 20:29:00,
2013-07-04 16:34:00,82.4,68.1,30.13,South,176,0.0,3.0,62,0.00,CLR,,0.01,WeatherDisplay:10.37,2013-07-04 20:34:00,
2013-07-04 16:39:00,82.2,67.9,30.14,South,173,2.0,3.0,62,0.00,CLR,,0.01,WeatherDisplay:10.37,2013-07-04 20:39:00,
2013-07-04 16:44:00,82.0,67.7,30.13,South,191,0.0,3.0,62,0.00,CLR,,0.01,WeatherDisplay:10.37,2013-07-04 20:44:00,
2013-07-04 16:49:00,81.9,68.5,30.13,SW,231,1.0,2.0,64,0.00,CLR,,0.01,WeatherDisplay:10.37,2013-07-04 20:49:00,
2013-07-04 16:54:00,81.9,68.5,30.13,SW,234,1.0,2.0,64,0.00,CLR,,0.01,WeatherDisplay:10.37,2013-07-04 20:54:00,
2013-07-04 16:59:00,82.0,68.7,30.13,WSW,250,3.0,4.0,64,0.00,CLR,,0.01,WeatherDisplay:10.37,2013-07-04 20:59:00,
2013-07-04 17:04:00,82.2,68.4,30.13,WSW,247,1.0,2.0,63,0.00,CLR,,0.01,WeatherDisplay:10.37,2013-07-04 21:04:00,
2013-07-04 17:09:00,82.2,68.4,30.13,WSW,252,1.0,2.0,63,0.00,CLR,,0.01,WeatherDisplay:10.37,2013-07-04 21:09:00,
2013-07-04 17:14:00,82.2,68.4,30.12,WSW,248,0.0,2.0,63,0.00,CLR,,0.01,WeatherDisplay:10.37,2013-07-04 21:14:00,
2013-07-04 17:20:00,82.0,68.7,30.12,SW,215,0.0,1.0,64,0.00,CLR,,0.01,WeatherDisplay:10.37,2013-07-04 21:20:00,
2013-07-04 17:29:00,82.0,68.7,30.12,East,88,1.0,2.0,64,0.00,CLR,,0.01,WeatherDisplay:10.37,2013-07-04 21:29:00,
2013-07-04 17:39:00,82.1,68.7,30.13,SE,130,0.0,2.0,64,0.00,CLR,,0.01,WeatherDisplay:10.37,2013-07-04 21:39:00,
2013-07-04 17:49:00,82.4,69.4,30.13,NE,49,0.0,1.0,65,0.00,CLR,,0.01,WeatherDisplay:10.37,2013-07-04 21:49:00,
2013-07-04 17:54:00,82.4,69.4,30.13,West,270,0.0,1.0,65,0.00,CLR,,0.01,WeatherDisplay:10.37,2013-07-04 21:54:00,
2013-07-04 17:59:00,82.4,69.0,30.13,WSW,240,1.0,3.0,64,0.00,CLR,,0.01,WeatherDisplay:10.37,2013-07-04 21:59:00,
2013-07-04 18:04:00,82.4,69.0,30.13,West,265,0.0,1.0,64,0.00,CLR,,0.01,WeatherDisplay:10.37,2013-07-04 22:04:00,
2013-07-04 18:09:00,82.4,69.0,30.13,WNW,295,0.0,1.0,64,0.00,CLR,,0.01,WeatherDisplay:10.37,2013-07-04 22:09:00,
2013-07-04 18:14:00,82.2,69.3,30.13,WSW,245,0.0,1.0,65,0.00,CLR,,0.01,WeatherDisplay:10.37,2013-07-04 22:14:00,
2013-07-04 18:19:00,82.0,69.1,30.13,SSE,151,0.0,0.0,65,0.00,CLR,,0.01,WeatherDisplay:10.37,2013-07-04 22:19:00,
2013-07-04 18:29:00,81.8,68.9,30.13,SW,222,1.0,1.0,65,0.00,CLR,,0.01,WeatherDisplay:10.37,2013-07-04 22:29:00,
2013-07-04 18:34:00,81.7,68.8,30.13,West,270,1.0,1.0,65,0.00,CLR,,0.01,WeatherDisplay:10.37,2013-07-04 22:34:00,
2013-07-04 18:39:00,81.7,68.8,30.13,West,272,1.0,1.0,65,0.00,CLR,,0.01,WeatherDisplay:10.37,2013-07-04 22:39:00,
2013-07-04 18:49:00,81.9,68.9,30.13,WNW,286,0.0,1.0,65,0.00,CLR,,0.01,WeatherDisplay:10.37,2013-07-04 22:49:00,
2013-07-04 18:54:00,81.8,68.9,30.13,WNW,288,0.0,1.0,65,0.00,CLR,,0.01,WeatherDisplay:10.37,2013-07-04 22:54:00,
2013-07-04 18:59:00,81.7,69.2,30.13,WSW,248,1.0,2.0,66,0.00,CLR,,0.01,WeatherDisplay:10.37,2013-07-04 22:59:00,
2013-07-04 19:04:00,81.7,69.2,30.13,WSW,248,1.0,1.0,66,0.00,CLR,,0.01,WeatherDisplay:10.37,2013-07-04 23:04:00,
2013-07-04 19:09:00,81.7,69.2,30.13,WSW,248,1.0,1.0,66,0.00,CLR,,0.01,WeatherDisplay:10.37,2013-07-04 23:09:00,
2013-07-04 19:14:00,81.7,69.2,30.13,WSW,243,1.0,1.0,66,0.00,CLR,,0.01,WeatherDisplay:10.37,2013-07-04 23:14:00,
2013-07-04 19:19:00,81.5,69.0,30.13,WSW,244,0.0,1.0,66,0.00,CLR,,0.01,WeatherDisplay:10.37,2013-07-04 23:19:00,
2013-07-04 19:30:00,81.5,69.0,30.14,SW,233,1.0,1.0,66,0.00,CLR,,0.01,WeatherDisplay:10.37,2013-07-04 23:30:00,
2013-07-04 19:36:00,81.4,69.4,30.13,SW,225,0.0,0.0,67,0.00,CLR,,0.01,WeatherDisplay:10.37,2013-07-04 23:36:00,
2013-07-04 19:45:00,81.3,69.3,30.14,SSW,192,0.0,0.0,67,0.00,CLR,,0.01,WeatherDisplay:10.37,2013-07-04 23:45:00,
2013-07-04 19:54:00,80.7,70.0,30.14,SW,225,0.0,0.0,70,0.00,CLR,,0.01,WeatherDisplay:10.37,2013-07-04 23:54:00,
2013-07-04 19:59:00,80.4,70.2,30.14,SW,225,0.0,0.0,71,0.00,CLR,,0.01,WeatherDisplay:10.37,2013-07-04 23:59:00,
2013-07-04 20:04:00,80.1,70.2,30.14,SW,225,0.0,0.0,72,0.00,CLR,,0.01,WeatherDisplay:10.37,2013-07-05 00:04:00,
2013-07-04 20:09:00,79.9,70.0,30.14,SW,225,0.0,0.0,72,0.00,CLR,,0.01,WeatherDisplay:10.37,2013-07-05 00:09:00,
2013-07-04 20:14:00,79.7,69.9,30.14,SW,225,0.0,1.0,72,0.00,CLR,,0.01,WeatherDisplay:10.37,2013-07-05 00:14:00,
2013-07-04 20:19:00,79.3,70.3,30.14,SW,225,1.0,1.0,74,0.00,CLR,,0.01,WeatherDisplay:10.37,2013-07-05 00:19:00,
2013-07-04 20:24:00,78.8,70.2,30.14,SW,226,0.0,1.0,75,0.00,CLR,,0.01,WeatherDisplay:10.37,2013-07-05 00:24:00,
2013-07-04 20:29:00,78.4,70.2,30.15,SW,226,0.0,0.0,76,0.00,CLR,,0.01,WeatherDisplay:10.37,2013-07-05 00:29:00,
2013-07-04 20:34:00,78.1,70.3,30.15,SW,232,0.0,1.0,77,0.00,CLR,,0.01,WeatherDisplay:10.37,2013-07-05 00:34:00,
2013-07-04 20:39:00,77.8,70.4,30.15,WSW,247,0.0,0.0,78,0.00,CLR,,0.01,WeatherDisplay:10.37,2013-07-05 00:39:00,
2013-07-04 20:49:00,77.4,70.0,30.14,WSW,248,1.0,1.0,78,0.00,CLR,,0.01,WeatherDisplay:10.37,2013-07-05 00:49:00,
2013-07-04 20:59:00,77.1,69.7,30.14,WSW,248,0.0,0.0,78,0.00,CLR,,0.01,WeatherDisplay:10.37,2013-07-05 00:59:00,
2013-07-04 21:04:00,77.0,69.6,30.15,WSW,248,0.0,0.0,78,0.00,CLR,,0.01,WeatherDisplay:10.37,2013-07-05 01:04:00,
2013-07-04 21:09:00,76.8,69.8,30.15,WSW,248,0.0,0.0,79,0.00,CLR,,0.01,WeatherDisplay:10.37,2013-07-05 01:09:00,
2013-07-04 21:14:00,76.8,69.8,30.14,WSW,246,0.0,0.0,79,0.01,RA,,0.02,WeatherDisplay:10.37,2013-07-05 01:14:00,
2013-07-04 21:19:00,76.6,69.6,30.14,SW,233,0.0,1.0,79,0.00,RA,,0.02,WeatherDisplay:10.37,2013-07-05 01:19:00,
2013-07-04 21:24:00,76.5,69.5,30.14,SW,225,0.0,0.0,79,0.00,CLR,,0.02,WeatherDisplay:10.37,2013-07-05 01:24:00,
2013-07-04 21:29:00,76.5,69.5,30.15,SSW,213,1.0,1.0,79,0.00,CLR,,0.02,WeatherDisplay:10.37,2013-07-05 01:29:00,
2013-07-04 21:34:00,76.3,69.3,30.14,SSE,163,1.0,1.0,79,0.00,CLR,,0.02,WeatherDisplay:10.37,2013-07-05 01:34:00,
2013-07-04 21:39:00,76.3,69.7,30.14,East,91,1.0,1.0,80,0.00,CLR,,0.02,WeatherDisplay:10.37,2013-07-05 01:39:00,
2013-07-04 21:49:00,76.1,69.8,30.15,NNE,13,0.0,1.0,81,0.00,CLR,,0.02,WeatherDisplay:10.37,2013-07-05 01:49:00,
2013-07-04 21:54:00,75.9,69.3,30.15,NW,316,0.0,0.0,80,0.00,CLR,,0.02,WeatherDisplay:10.37,2013-07-05 01:54:00,
2013-07-04 22:04:00,75.9,69.3,30.15,North,358,0.0,0.0,80,0.00,CLR,,0.02,WeatherDisplay:10.37,2013-07-05 02:04:00,
2013-07-04 22:09:00,75.9,69.3,30.15,NNE,22,0.0,0.0,80,0.00,CLR,,0.02,WeatherDisplay:10.37,2013-07-05 02:09:00,
2013-07-04 22:14:00,75.7,69.5,30.15,NNE,22,0.0,0.0,81,0.00,CLR,,0.02,WeatherDisplay:10.37,2013-07-05 02:14:00,
2013-07-04 22:19:00,75.7,69.1,30.15,NNE,22,0.0,0.0,80,0.00,CLR,,0.02,WeatherDisplay:10.37,2013-07-05 02:19:00,
2013-07-04 22:24:00,75.7,69.4,30.15,NNE,20,0.0,0.0,81,0.00,CLR,,0.02,WeatherDisplay:10.37,2013-07-05 02:24:00,
2013-07-04 22:29:00,75.6,69.3,30.15,SSW,202,0.0,0.0,81,0.00,CLR,,0.02,WeatherDisplay:10.37,2013-07-05 02:29:00,
2013-07-04 22:34:00,75.6,69.3,30.15,South,182,0.0,0.0,81,0.00,CLR,,0.02,WeatherDisplay:10.37,2013-07-05 02:34:00,
2013-07-04 22:39:00,75.6,69.3,30.15,ENE,68,0.0,0.0,81,0.00,CLR,,0.02,WeatherDisplay:10.37,2013-07-05 02:39:00,
2013-07-04 22:49:00,75.2,69.0,30.15,ESE,112,0.0,0.0,81,0.00,CLR,,0.02,WeatherDisplay:10.37,2013-07-05 02:49:00,
2013-07-04 22:59:00,74.8,68.3,30.15,SSE,153,0.0,1.0,80,0.00,CLR,,0.02,WeatherDisplay:10.37,2013-07-05 02:59:00,
2013-07-04 23:04:00,74.6,68.0,30.15,SSE,160,0.0,0.0,80,0.00,CLR,,0.02,WeatherDisplay:10.37,2013-07-05 03:04:00,
2013-07-04 23:09:00,74.3,67.7,30.15,South,183,1.0,1.0,80,0.00,CLR,,0.02,WeatherDisplay:10.37,2013-07-05 03:09:00,
2013-07-04 23:19:00,73.9,67.4,30.15,SSE,158,0.0,0.0,80,0.00,CLR,,0.02,WeatherDisplay:10.37,2013-07-05 03:19:00,
2013-07-04 23:29:00,73.6,67.4,30.15,SSE,158,0.0,0.0,81,0.00,CLR,,0.02,WeatherDisplay:10.37,2013-07-05 03:29:00,
2013-07-04 23:34:00,73.3,67.2,30.15,SSE,158,0.0,0.0,81,0.00,CLR,,0.02,WeatherDisplay:10.37,2013-07-05 03:34:00,
2013-07-04 23:39:00,73.2,67.0,30.15,SSE,155,0.0,1.0,81,0.00,CLR,,0.02,WeatherDisplay:10.37,2013-07-05 03:39:00,
2013-07-04 23:44:00,73.0,66.9,30.15,ESE,119,0.0,0.0,81,0.00,CLR,,0.02,WeatherDisplay:10.37,2013-07-05 03:44:00,
2013-07-04 23:49:00,73.0,66.8,30.15,ESE,112,0.0,0.0,81,0.00,CLR,,0.02,WeatherDisplay:10.37,2013-07-05 03:49:00,
2013-07-04 23:54:00,72.9,66.7,30.15,SE,136,0.0,1.0,81,0.00,CLR,,0.02,WeatherDisplay:10.37,2013-07-05 03:54:00,
2013-07-04 23:59:00,72.7,66.5,30.15,SSE,153,0.0,1.0,81,0.00,RA,,0.00,WeatherDisplay:10.37,2013-07-05 03:59:00,